Погода в Протвино

Россия / Московская область     54°52′14″N   37°13′05″E
темп.,
°C
ветер,
м/с
пор.,
м/с
влажн.,
%
обл.,
%
осадки,
мм/ч
давл.,
гПа
погр.,
м
14 мая, пт
пт1400:00+9ююв33948 0.0 101750
03:00+8ююв22946 0.0 101730
06:00+9вюв2493100 0.0 101799
09:00+15вюв468275 0.0 1016504
12:00+19юв4565100 0.0 10151056
15:00+17юв4685100 0.9 1014442
18:00+14всв61197100 4.3 1012357
21:00+13в4897100 7.9 1011155
15 мая, сб
сб1500:00+13ююв4119496 0.4 1010214
03:00+13ююв3795100 0.4 1010123
06:00+13юв379692 0.0 1010170
09:00+18ююз4685100 0.0 1010510
12:00+21ююз576519 0.0 10101499
15:00+21ююз68605 0.6 10102049
18:00+18ююз5107585 0.3 1010623
21:00+14ю4109297 0.6 1011214
16 мая, вс
вс1600:00+12ююз39955 0.1 1011195
03:00+11ююз38961 0.1 1012154
06:00+12ююз410930 0.0 1013297
09:00+16юз58765 0.0 1013728
12:00+19ююз69638 0.0 10141445
15:00+20ююз68609 0.0 10131844
18:00+19ююз477029 0.1 1013397
21:00+15ююз228297 0.1 101411
17 мая, пн
пн1700:00+14юв118492 0.0 101411
03:00+12вюв2288100 0.0 101516
06:00+13в389088 0.0 1014182
09:00+19в5976100 0.0 1013489
12:00+23вюв796779 0.0 1011939
15:00+25юв6106750 0.0 10101110
18:00+23юв6127383 0.0 1009650
21:00+19юв616815 0.0 1008475
18 мая, вт
вт1800:00+17юв5158291 0.0 1008403
03:00+14юв4109111 0.0 1007210
06:00+15юв4108689 0.0 1007263
09:00+19ююв5875100 0.0 1006458
12:00+21ююв5975100 0.0 1006931
15:00+18ююв2688100 2.7 1006180
18:00+19ю6128666 0.6 1006823
21:00+16ю5119394 0.6 1007461